sat.trackr.live / text

‹ back to catalog

PAZ

NORAD 43215 · 2018-020A

PAYLOAD ACTIVE UNKNOWN

§ Identity

Operator
Country
SPN
Launch date
2018-02-22
Launch site
AFWTR
Launch vehicle
Mass (kg)
RCS (m²)

External: N2YO · Heavens-Above · Gunter

§ Orbital elements

Epoch: 2026-09-20T05:18:00.601056Z

Period
94.79 min
Inclination
97.4468°
Eccentricity
0.0001732
Mean motion
15.19147078 rev/d
Perigee alt
507.2 km
Apogee alt
509.6 km
Semi-major
6,886.6 km
B*
5.7164e-5
RAAN
269.2626°
Arg perigee
90.2412°
Mean anomaly
269.9021°
Rev number
47,543

§ Raw data

PAZ1 43215U 18020A   26263.22084029  .00001133  00000+0  57164-4 0  99962 43215  97.4468 269.2626 0001732  90.2412 269.9021 15.19147078475434

JSON: /api/v1/satellites/43215 · /tle

For live sub-satellite position, see the globe view (requires WebGL).

§ Visibility from observer

Set your observer location to see the next 7 days of passes ≥ 10°. The values pass through the URL so the page stays shareable.

No JS? Fill the form by hand. The geolocation button needs JavaScript.

§ Radio — SatNOGS DB

ModeDescriptionDownlinkUplink
FM Mode S - wideband 2.285 GHz
FM Mode X dumps (Spain) 8.150 GHz

2 transmitters · refreshed weekly from db.satnogs.org